Regional Weather Roundup
Issued by NWS

Home | Current Version | Previous Version | Graphics & Text | Print | Product List | Glossary On
Versions: 1 2 3 4 5 6 7 8 9 10 11 12 13 14 15 16 17 18 19 20 21 22 23 24 25 26 27 28 29 30 31 32 33 34 35 36 37 38 39 40 41 42 43 44 45 46 47 48 49 50
783
ASUS45 KBOI 191210
RWRID

IDAHO REGIONAL WEATHER ROUNDUP
NATIONAL WEATHER SERVICE BOISE ID
500 AM MST SUN FEB 19 2017

NOTE: "FAIR" INDICATES FEW OR NO CLOUDS BELOW 12000 FEET
WITH NO SIGNIFICANT WEATHER AND/OR OBSTRUCTIONS TO VISIBILITY

IDZ012-014-191300-
SOUTHWEST IDAHO


CITY           SKY/WX    TMP DP  RH WIND       PRES   REMARKS
BOISE          CLOUDY    43  39  86 S10       29.54R
CALDWELL       CLOUDY    38  37  97 NW8       29.55S WCI  32
MOUNTAIN HOME  CLOUDY    40  40 100 E6        29.56R
$$

IDZ016-017-191300-
SOUTHCENTRAL IDAHO


CITY           SKY/WX    TMP DP  RH WIND       PRES   REMARKS
BURLEY         CLOUDY    41  35  79 SW9       29.56R
JEROME         LGT RAIN  39  37  92 S6        29.57R WCI  35
TWIN FALLS     CLOUDY    40  34  79 S14       29.57R WCI  32
$$

IDZ019>023-191300-
SOUTHEAST IDAHO


CITY           SKY/WX    TMP DP  RH WIND       PRES   REMARKS
IDAHO FALLS    LGT SNOW  32  32 100 S12       29.59S FOG     WCI  23
POCATELLO      CLOUDY    37  35  92 S5        29.59F WCI  33
REXBURG        LGT SNOW  32  32 100 S13       29.57F FOG     WCI  22
$$

IDZ006-010-011-018-031-032-191300-
CENTRAL IDAHO MOUNTAINS


CITY           SKY/WX    TMP DP  RH WIND       PRES   REMARKS
MCCALL         LGT SNOW  33  31  92 S10       29.46R FOG     WCI  25
HAILEY         CLOUDY    32  32 100 S5        29.56S WCI  27
STANLEY          N/A     32  31  96 CALM      29.49R
SALMON         CLOUDY    34  34 100 S3        29.46S
CHALLIS        CLOUDY    35  33  92 N3        29.46S
$$

IDZ002-004-006-007-026-191300-
NORTHERN IDAHO


CITY           SKY/WX    TMP DP  RH WIND       PRES   REMARKS
LEWISTON       LGT RAIN  39  35  86 E7        29.48S WCI  34
LOWELL           N/A     34  33  96 CALM      29.55R
COEUR D`ALENE  CLOUDY    34  33  96 NE3       29.48R
MULLAN PASS    LGT SNOW  25  25 100 SW3       29.41R FOG
$$




USA.gov is the U.S. government's official web portal to all federal, state and local government web resources and services.